Location: Winthrop
(48.4780°N, 120.1850°W)
Time: 02:15:09
(UTC-07:00)

Transit 2A - Pass Details

Date: 19 June 2024
Orbit: 591 x 960 km, 66.7° (Epoch: 23 July)

Event Time Altitude Azimuth Distance (km) Brightness Sun altitude
Rises 21:57:44 0° 318° (NW) 3,373 12.1 -7.1°
Reaches altitude 10° 22:01:21 10° 342° (NNW) 2,516 9.9 -7.5°
Maximum altitude 22:04:34 15° 15° (NNE) 2,248 8.9 -7.8°
Drops below altitude 10° 22:07:53 10° 48° (NE) 2,625 8.8 -8.2°
Sets 22:11:48 0° 72° (ENE) 3,613 9.3 -8.6°
